Tracking 25953 objects as of 16-Aug-2022
HD Live streaming from Space Station
objects crossing your sky now

NANOSAT C BR2

Track NANOSAT C BR2 now!
10-day predictions
NANOSAT C BR2 is classified as:


NORAD ID: 47950
Int'l Code: 2021-022U
Perigee: 535.2 km
Apogee: 561.5 km
Inclination: 97.5 °
Period: 95.5 minutes
Semi major axis: 6919 km
RCS: Unknown
Launch date: March 22, 2021
Source: (TBD)
Launch site: TYURATAM MISSILE AND SPACE COMPLEX (TTMTR)

Uplink (MHz):
Downlink (MHz): 145.865
Beacon (MHz):
Mode: 1k2/2k4/4k8/9k6BPSK
Call sign: NCBR2
Status: Active

aabbcc
Your satellite tracking list
Your tracking list is empty




NASA's NSSDC Master Catalog

Two Line Element Set (TLE):
1 47950U 21022U   22227.97637824  .00004272  00000-0  27796-3 0  9992
2 47950  97.5219 126.1964 0019008 307.7948 107.2901 15.08356231 76978
Source of the keplerian elements: AFSPC